Weather past 2 weeks in Amsterdam Island, French Southern Territories

Now
66 °F

Mild.


Feels Like: 66 °F
Forecast: 63 / 66 °F
Wind: 18 mph from West

Location: Martin De Vivies Ile Amsterdam

Current Time: Mar 29, 2015 at 7:05:02 AM

Latest Report: Mar 29, 2015 at 6:00 AM


Visibility: N/A

Pressure: 30.12 "Hg

Humidity: 94%

Dew point: 64 °F

Location of Amsterdam IslandLocation

Historic Weather in Amsterdam Island — Graph

°F

Amsterdam Island temperature yesterday

Maximum temperature yesterday: 73 °F (at 2:00 PM)
Minimum temperature yesterday: 62 °F (at 3:00 AM)
Average temperature yesterday: 67 °F

Past Weeks' High & Low Weather Summary

 TemperatureHumidityPressure
High73 °F (Mar 24, 12:00 PM)95% (Mar 24, 10:00 PM)30.47 "Hg (Mar 24, 10:00 PM)
Low49 °F (Mar 17, 4:00 AM)49% (Mar 17, 12:00 PM)29.69 "Hg (Mar 14, 3:00 PM)
Average64 °F79%30.26 "Hg
* Reported Mar 14 5:00 AM — Mar 29 5:00 AM, Amsterdam Island, Weather by CustomWeather, © 2015

Note: Actual official high and low records may vary slightly from our data, if they occured in-between our weather recording intervals... More about our weather records

Advertising

Amsterdam Island weather history for previous 24 hours

 ConditionsComfort  
Time TempWeatherWind HumidityBarometerVisibility
5:00 AM
Sun, Mar 29
66 °FMild.18 mph94%30.12 "HgN/A
4:00 AM66 °FMild.17 mph95%30.12 "HgN/A
3:00 AM66 °FMild.18 mph94%30.13 "HgN/A
1:00 AM67 °FMild.17 mph94%30.15 "HgN/A
12:00 AM67 °FMild.17 mph94%30.16 "HgN/A
11:00 PM
Sat, Mar 28
67 °FMild.16 mph93%30.17 "HgN/A
10:00 PM67 °FMild.17 mph93%30.18 "HgN/A
9:00 PM67 °FMild.18 mph94%30.19 "HgN/A
8:00 PM66 °FMild.15 mph93%30.18 "HgN/A
7:00 PM67 °FMild.16 mph93%30.19 "HgN/A
6:00 PM67 °FMild.16 mph92%30.18 "HgN/A
5:00 PM68 °FMild.15 mph90%30.18 "HgN/A
4:00 PM70 °FMild.15 mph84%30.18 "HgN/A
3:00 PM72 °FMild.14 mph81%30.19 "HgN/A
2:00 PM73 °FMild.15 mph77%30.19 "HgN/A
1:00 PM71 °FMild.16 mph82%30.20 "HgN/A
12:00 PM70 °FMild.14 mph88%30.22 "HgN/A
11:00 AM68 °FMild.14 mph91%30.23 "HgN/A
10:00 AM66 °FMild.7 mph93%30.25 "HgN/A
9:00 AM66 °FMild.8 mph94%30.26 "HgN/A
8:00 AM66 °FMild.8 mph95%30.25 "HgN/A
7:00 AM64 °FMild.8 mph95%30.26 "HgN/A
Weather by CustomWeather, © 2015

See weather overviewHow to use our weather pages